Edgerton, Ohio
Current Conditions -  °F | °C
As of 7:35 PM on Thursday 18 Dec 2014 (Local Time) from KGWB Reporting Station
Overcast Overcast  
Wind Chill: 22°   Ceiling: 2700
Heat Index: 28°   Visibility: 7mi
Dew Point: 23°   Wind: 6mph
Humidity: 80%   Direction: 270°W
Pressure: 30.22"   Gusts: NA
Location:  41.45°N, 84.75°W
Report Text: KGWB 190035Z AUTO 27005KT 7SM SCT011 OVC027 M02/M05 A3022 RMK AO2
Loading
Personal Weather Stations






























Interactive Weather Map New forecast layout! Learn more

10-Day Weather Forecast

Advertisements
Track Severe Weather on mobile